Surface/Precipitation History
12/20/2014 09:35  to  12/21/2014 09:35
Change End Date:
Date/Time
(MST)
Sf
Temp Chem Water Layer Surface Precipitation
Sf Sub Frz Factor Pct Depth IcePct Cond Salin Type Intens Accum Rate
12/21/2014 09:31 Ice Warning 28.4F 31F 32F 95 0% - 98% 1 mhos 57 Yes - - -
12/21/2014 09:31 Ice Warning 28.4F 31F 32F 95 0% - 98% 1 mhos 57 Yes - - -
12/21/2014 09:21 Ice Warning 28.8F 31F 32F 95 0% - 98% 1 mhos 58 Yes - - -
12/21/2014 09:21 Ice Warning 28.8F 31F 32F 95 0% - 98% 1 mhos 58 Yes - - -
12/21/2014 09:11 Ice Warning 29.1F 31F 32F 95 0% - 98% 1 mhos 58 Yes - - -
12/21/2014 09:04 Ice Warning 29.1F 31F 32F 95 1% - 93% 2 mhos 209 Yes - - -
12/21/2014 09:01 Ice Warning 29.1F 31F 32F 95 1% - 93% 2 mhos 213 Yes - - -
12/21/2014 08:51 Ice Warning 29.1F 31F 32F 95 1% - 88% 3 mhos 353 Yes - - -
12/21/2014 08:51 Ice Warning 29.1F 31F 32F 95 1% - 88% 3 mhos 353 Yes - - -
12/21/2014 08:41 Ice Warning 29.1F 31F 32F 95 1% - 88% 3 mhos 352 Yes - - -
12/21/2014 08:33 Ice Warning 29.1F 31F 32F 95 1% - 88% 3 mhos 353 Yes - - -
12/21/2014 08:31 Ice Warning 29.1F 31F 32F 95 1% - 88% 3 mhos 353 Yes - - -
12/21/2014 08:21 Ice Warning 29.1F 31F 32F 95 1% - 88% 3 mhos 349 Yes - - -
12/21/2014 08:21 Ice Warning 29.1F 31F 32F 95 1% - 88% 3 mhos 349 Yes - - -
12/21/2014 08:11 Ice Warning 29.1F 31F 32F 95 1% - 88% 3 mhos 342 Yes - - -
Date/Time
(MST)
Sf
Temp Chem Water Layer Surface Precipitation
Sf Sub Frz Factor Pct Depth IcePct Cond Salin Type Intens Accum Rate
12/21/2014 08:01 Ice Warning 29.1F 31F 32F 95 1% - 93% 2 mhos 210 Yes - - -
12/21/2014 07:51 Ice Warning 29.1F 31F 32F 95 1% - 93% 2 mhos 201 Yes - - -
12/21/2014 07:51 Ice Warning 29.1F 31F 32F 95 1% - 93% 2 mhos 201 Yes - - -
12/21/2014 07:40 Ice Warning 29.1F 31F 32F 95 1% - 93% 2 mhos 201 Yes - - -
12/21/2014 07:30 Ice Warning 28.9F 31F 32F 95 1% - 94% 2 mhos 198 Yes - - -
12/21/2014 07:21 Ice Warning 28.9F 31F 32F 95 1% - 94% 2 mhos 195 Yes - - -
12/21/2014 07:20 Ice Warning 28.9F 31F 32F 95 1% - 94% 2 mhos 195 Yes - - -
12/21/2014 07:10 Ice Warning 28.9F 31F 32F 95 1% - 94% 2 mhos 190 Yes - - -
12/21/2014 07:01 Ice Warning 28.9F 31F 32F 95 1% - 94% 2 mhos 190 Yes - - -
12/21/2014 07:00 Ice Warning 28.9F 31F 32F 95 1% - 94% 2 mhos 186 Yes - - -
12/21/2014 06:51 Ice Warning 28.9F 31F 32F 95 1% - 94% 2 mhos 186 Yes - - -
12/21/2014 06:50 Ice Warning 28.9F 31F 32F 95 1% - 94% 2 mhos 186 Yes - - -
12/21/2014 06:40 Ice Warning 28.8F 31F 32F 95 1% - 94% 2 mhos 183 Yes - - -
12/21/2014 06:32 Ice Warning 28.9F 31F 32F 95 1% - 94% 2 mhos 184 Yes - - -
12/21/2014 06:30 Ice Warning 28.8F 31F 32F 95 1% - 94% 2 mhos 184 Yes - - -
Date/Time
(MST)
Sf
Temp Chem Water Layer Surface Precipitation
Sf Sub Frz Factor Pct Depth IcePct Cond Salin Type Intens Accum Rate
12/21/2014 06:21 Ice Warning 28.8F 31F 32F 95 1% - 94% 2 mhos 179 Yes - - -
12/21/2014 06:20 Ice Warning 28.8F 31F 32F 95 1% - 94% 2 mhos 179 Yes - - -
12/21/2014 06:10 Ice Warning 28.8F 31F 32F 95 1% - 95% 2 mhos 173 Yes - - -
12/21/2014 06:00 Ice Warning 28.8F 31F 32F 95 1% - 95% 2 mhos 172 Yes - - -
12/21/2014 05:51 Ice Warning 28.8F 31F 32F 95 1% - 95% 1 mhos 167 Yes - - -
12/21/2014 05:50 Ice Warning 28.8F 31F 32F 95 1% - 95% 1 mhos 166 Yes - - -
12/21/2014 05:40 Ice Warning 28.8F 31F 32F 95 1% - 95% 1 mhos 166 Yes - - -
12/21/2014 05:31 Ice Warning 28.8F 31F 32F 95 1% - 95% 1 mhos 161 Yes - - -
12/21/2014 05:30 Ice Warning 28.8F 31F 32F 95 1% - 95% 1 mhos 163 Yes - - -
12/21/2014 05:21 Ice Warning 28.8F 31F 32F 95 1% - 95% 1 mhos 147 Yes - - -
12/21/2014 05:20 Ice Warning 28.8F 31F 32F 95 1% - 95% 1 mhos 147 Yes - - -
12/21/2014 05:10 Ice Warning 28.8F 31F 32F 95 1% - 96% 1 mhos 136 Yes - - -
12/21/2014 05:02 Ice Warning 28.8F 31F 32F 95 0% - 96% 1 mhos 126 Yes - - -
12/21/2014 05:00 Ice Warning 28.8F 31F 32F 95 0% - 96% 1 mhos 124 Yes - - -
12/21/2014 04:51 Ice Warning 28.8F 31F 32F 95 0% - 96% 1 mhos 116 Yes - - -
Date/Time
(MST)
Sf
Temp Chem Water Layer Surface Precipitation
Sf Sub Frz Factor Pct Depth IcePct Cond Salin Type Intens Accum Rate
12/21/2014 04:50 Ice Warning 28.8F 31F 32F 95 0% - 96% 1 mhos 115 Yes - - -
12/21/2014 04:40 Ice Warning 28.8F 31F 32F 95 0% - 97% 1 mhos 102 Yes - - -
12/21/2014 04:30 Ice Warning 28.8F 31F 32F 95 0% - 97% 1 mhos 85 Yes - - -
12/21/2014 04:26 Ice Warning 28.8F 31F 32F 95 0% - 98% 1 mhos 79 Yes - - -
12/21/2014 04:20 Ice Warning 28.8F 31F 32F 95 0% - 98% 1 mhos 70 Yes - - -
12/21/2014 04:10 Ice Warning 28.6F 31F 32F 95 0% - 98% 1 mhos 59 Yes - - -
12/21/2014 04:00 Ice Warning 28.6F 31F 32F 95 0% - 98% 0 mhos 54 Yes - - -
12/21/2014 03:52 Ice Warning 28.6F 31F 32F 95 0% - 98% 0 mhos 52 Yes - - -
12/21/2014 03:50 Ice Warning 28.6F 31F 32F 95 0% - 98% 0 mhos 51 Yes - - -
12/21/2014 03:40 Ice Warning 28.6F 31F 32F 95 0% - 99% 0 mhos 50 Yes - - -
12/21/2014 03:30 Ice Warning 28.6F 31F 32F 95 0% - 99% 0 mhos 49 Yes - - -
12/21/2014 03:23 Ice Warning 28.6F 31F 32F 95 0% - 99% 0 mhos 48 Yes - - -
12/21/2014 03:20 Ice Warning 28.6F 31F 32F 95 0% - 99% 0 mhos 48 Yes - - -
12/21/2014 03:10 Ice Warning 28.6F 31F 32F 95 0% - 99% 0 mhos 47 Yes - - -
12/21/2014 03:00 Ice Warning 28.6F 31F 32F 95 0% - 99% 0 mhos 47 Yes - - -
Date/Time
(MST)
Sf
Temp Chem Water Layer Surface Precipitation
Sf Sub Frz Factor Pct Depth IcePct Cond Salin Type Intens Accum Rate
12/21/2014 02:57 Ice Warning 28.6F 30F 32F 95 0% - 99% 0 mhos 47 Yes - - -
12/21/2014 02:50 Ice Warning 28.6F 31F 32F 95 0% - 99% 0 mhos 47 Yes - - -
12/21/2014 02:39 Ice Warning 28.4F 31F 32F 95 0% - 99% 0 mhos 47 Yes - - -
12/21/2014 02:29 Ice Warning 28.4F 30F 32F 95 0% - 99% 0 mhos 47 Yes - - -
12/21/2014 02:19 Ice Warning 28.4F 31F 32F 95 0% - 99% 0 mhos 47 Yes - - -
12/21/2014 02:09 Ice Warning 28.4F 30F 32F 95 0% - 99% 0 mhos 51 Yes - - -
12/21/2014 01:59 Ice Warning 28.4F 30F 32F 95 0% - 99% 0 mhos 53 Yes - - -
12/21/2014 01:49 Ice Warning 28.4F 31F 32F 95 0% - 98% 0 mhos 54 Yes - - -
12/21/2014 01:23 Ice Warning 28.4F 30F 32F 95 0% - 98% 0 mhos 56 Yes - - -
12/21/2014 01:19 Ice Warning 28.4F 30F 32F 95 0% - 98% 0 mhos 56 Yes - - -
12/21/2014 01:09 Ice Warning 28.4F 30F 32F 95 0% - 98% 0 mhos 56 Yes - - -
12/21/2014 00:59 Ice Warning 28.2F 30F 32F 95 0% - 98% 0 mhos 56 Yes - - -
12/21/2014 00:55 Ice Warning 28.2F 30F 32F 95 0% - 98% 1 mhos 56 Yes - - -
12/21/2014 00:49 Ice Warning 28.2F 30F 32F 95 0% - 98% 1 mhos 56 Yes - - -
12/21/2014 00:39 Ice Warning 28.2F 30F 32F 95 0% - 98% 1 mhos 57 Yes - - -
Date/Time
(MST)
Sf
Temp Chem Water Layer Surface Precipitation
Sf Sub Frz Factor Pct Depth IcePct Cond Salin Type Intens Accum Rate
12/21/2014 00:29 Ice Warning 28.2F 30F 32F 95 0% - 98% 1 mhos 57 Yes - - -
12/21/2014 00:22 Ice Warning 28.2F 31F 32F 95 0% - 99% 0 mhos 56 Yes - - -
12/21/2014 00:19 Ice Warning 28.2F 30F 32F 95 0% - 98% 1 mhos 57 Yes - - -
12/21/2014 00:09 Ice Warning 28.2F 30F 32F 95 0% - 98% 1 mhos 58 Yes - - -
12/21/2014 00:06 Ice Warning 28.2F 30F 32F 95 0% - 98% 1 mhos 58 Yes - - -
12/20/2014 23:59 Ice Warning 28.2F 30F 32F 95 0% - 98% 1 mhos 59 Yes - - -
12/20/2014 23:49 Ice Warning 28.0F 30F 32F 95 0% - 98% 1 mhos 61 Yes - - -
12/20/2014 23:39 Ice Warning 28.0F 30F 32F 95 0% - 98% 1 mhos 62 Yes - - -
12/20/2014 23:29 Ice Warning 28.0F 30F 32F 95 0% - 98% 1 mhos 61 Yes - - -
12/20/2014 23:27 Ice Warning 28.0F 30F 32F 95 0% - 98% 1 mhos 61 Yes - - -
12/20/2014 23:19 Ice Warning 28.0F 30F 32F 95 0% - 98% 1 mhos 62 Yes - - -
12/20/2014 23:09 Ice Warning 28.0F 30F 32F 95 0% - 98% 1 mhos 62 Yes - - -
12/20/2014 22:59 Ice Warning 28.0F 30F 32F 95 0% - 98% 1 mhos 62 Yes - - -
12/20/2014 22:57 Ice Warning 28.0F 30F 32F 95 0% - 98% 1 mhos 61 Yes - - -
12/20/2014 22:49 Ice Warning 28.0F 30F 32F 95 0% - 98% 1 mhos 62 Yes - - -
Date/Time
(MST)
Sf
Temp Chem Water Layer Surface Precipitation
Sf Sub Frz Factor Pct Depth IcePct Cond Salin Type Intens Accum Rate
12/20/2014 22:39 Ice Warning 28.0F 30F 32F 95 0% - 98% 1 mhos 63 Yes - - -
12/20/2014 22:30 Ice Warning 28.0F 30F 32F 95 0% - 98% 1 mhos 69 Yes - - -
12/20/2014 22:29 Ice Warning 28.0F 30F 32F 95 0% - 98% 1 mhos 69 Yes - - -
12/20/2014 22:19 Ice Warning 28.0F 30F 32F 95 0% - 98% 1 mhos 68 Yes - - -
12/20/2014 22:09 Ice Warning 28.0F 30F 32F 95 0% - 98% 1 mhos 67 Yes - - -
12/20/2014 22:00 Ice Warning 28.0F 30F 32F 95 0% - 98% 1 mhos 67 Yes - - -
12/20/2014 21:59 Ice Warning 28.0F 30F 32F 95 0% - 98% 1 mhos 67 Yes - - -
12/20/2014 21:49 Ice Warning 28.0F 30F 32F 95 0% - 98% 1 mhos 67 Yes - - -
12/20/2014 21:39 Ice Warning 28.0F 30F 32F 95 0% - 98% 1 mhos 68 Yes - - -
12/20/2014 21:28 Ice Warning 27.9F 30F 32F 95 0% - 98% 1 mhos 70 Yes - - -
12/20/2014 21:22 Ice Warning 27.9F 30F 32F 95 0% - 98% 1 mhos 74 Yes - - -
12/20/2014 21:18 Ice Warning 27.9F 30F 32F 95 0% - 98% 1 mhos 87 Yes - - -
12/20/2014 21:08 Ice Warning 27.9F 30F 32F 95 1% - 97% 1 mhos 131 None None - -
12/20/2014 21:00 Chemically Wet 27.9F 30F 31F 95 3% - 79% 8 mhos 876 Yes - - -
12/20/2014 20:58 Chemically Wet 27.9F 30F 31F 95 3% - 79% 8 mhos 883 Yes - - -
Date/Time
(MST)
Sf
Temp Chem Water Layer Surface Precipitation
Sf Sub Frz Factor Pct Depth IcePct Cond Salin Type Intens Accum Rate
12/20/2014 20:48 Chemically Wet 27.9F 30F 31F 95 3% - 79% 8 mhos 900 None None - -
12/20/2014 20:38 Chemically Wet 27.7F 30F 31F 95 3% - 80% 8 mhos 896 None None - -
12/20/2014 20:28 Chemically Wet 27.5F 30F 31F 95 3% - 80% 8 mhos 890 None None - -
12/20/2014 20:26 Chemically Wet 27.5F 30F 31F 95 3% - 80% 8 mhos 888 None None - -
12/20/2014 20:18 Chemically Wet 27.5F 30F 31F 95 3% - 80% 8 mhos 890 None None - -
12/20/2014 20:08 Chemically Wet 27.5F 30F 31F 95 3% - 80% 8 mhos 892 None None - -
12/20/2014 19:58 Chemically Wet 27.3F 30F 31F 95 3% - 81% 8 mhos 883 None None - -
12/20/2014 19:57 Chemically Wet 27.3F 30F 31F 95 3% - 81% 8 mhos 879 None None - -
12/20/2014 19:48 Chemically Wet 27.5F 30F 31F 95 3% - 81% 8 mhos 874 None None - -
12/20/2014 19:38 Chemically Wet 27.7F 30F 31F 95 3% - 80% 8 mhos 879 None None - -
12/20/2014 19:28 Chemically Wet 27.7F 30F 31F 95 3% - 81% 7 mhos 854 None None - -
12/20/2014 19:28 Chemically Wet 27.7F 30F 31F 95 3% - 81% 7 mhos 854 None None - -
12/20/2014 19:18 Chemically Wet 27.7F 30F 31F 95 3% - 81% 7 mhos 827 None None - -
12/20/2014 19:08 Chemically Wet 27.7F 30F 31F 95 3% - 82% 7 mhos 801 None None - -
12/20/2014 18:58 Chemically Wet 27.5F 30F 31F 95 3% - 83% 7 mhos 777 None None - -
Date/Time
(MST)
Sf
Temp Chem Water Layer Surface Precipitation
Sf Sub Frz Factor Pct Depth IcePct Cond Salin Type Intens Accum Rate
12/20/2014 18:58 Chemically Wet 27.5F 30F 31F 95 3% - 83% 7 mhos 777 None None - -
12/20/2014 18:48 Chemically Wet 27.5F 30F 31F 95 3% - 83% 7 mhos 761 None None - -
12/20/2014 18:38 Chemically Wet 27.3F 30F 31F 95 3% - 84% 6 mhos 738 None None - -
12/20/2014 18:28 Chemically Wet 27.5F 30F 31F 95 3% - 84% 6 mhos 713 None None - -
12/20/2014 18:27 Chemically Wet 27.3F 30F 31F 95 3% - 85% 6 mhos 710 None None - -
12/20/2014 18:18 Ice Warning 27.3F 30F 31F 95 3% - 85% 6 mhos 701 None None - -
12/20/2014 18:08 Ice Warning 27.3F 30F 31F 95 3% - 85% 6 mhos 688 None None - -
12/20/2014 17:58 Ice Warning 27.1F 30F 31F 95 3% - 86% 6 mhos 687 None None - -
12/20/2014 17:57 Ice Warning 27.1F 30F 31F 95 3% - 86% 6 mhos 687 Yes - - -
12/20/2014 17:48 Ice Warning 27.0F 30F 31F 95 3% - 86% 6 mhos 687 None None - -
12/20/2014 17:38 Ice Warning 27.0F 30F 31F 95 3% - 86% 6 mhos 716 None None - -
12/20/2014 17:28 Chemically Wet 27.1F 30F 31F 95 3% - 85% 6 mhos 737 Yes - - -
12/20/2014 17:25 Chemically Wet 27.1F 30F 31F 95 3% - 84% 7 mhos 762 None None - -
12/20/2014 17:17 Chemically Wet 27.3F 30F 31F 95 3% - 84% 7 mhos 776 Yes - - -
12/20/2014 17:07 Chemically Wet 27.7F 30F 31F 95 3% - 81% 7 mhos 844 None None - -
Date/Time
(MST)
Sf
Temp Chem Water Layer Surface Precipitation
Sf Sub Frz Factor Pct Depth IcePct Cond Salin Type Intens Accum Rate
12/20/2014 17:02 Chemically Wet 28.0F 30F 31F 95 3% - 79% 7 mhos 824 None None - -
12/20/2014 16:57 Chemically Wet 28.2F 30F 31F 95 3% - 78% 7 mhos 832 None None - -
12/20/2014 16:51 Chemically Wet 28.6F 30F 31F 95 3% - 76% 7 mhos 823 None None - -
12/20/2014 16:47 Chemically Wet 28.8F 30F 31F 95 3% - 74% 7 mhos 831 None None - -
12/20/2014 16:37 Chemically Wet 29.1F 30F 31F 95 3% - 71% 7 mhos 803 None None - -
12/20/2014 16:27 Chemically Wet 29.3F 30F 31F 95 3% - 66% 8 mhos 880 None None - -
12/20/2014 16:22 Chemically Wet 29.5F 30F 31F 95 3% - 64% 8 mhos 894 None None - -
12/20/2014 16:17 Chemically Wet 29.5F 30F 31F 95 3% - 64% 8 mhos 881 None None - -
12/20/2014 16:07 Chemically Wet 29.7F 30F 31F 95 3% - 65% 7 mhos 808 None None - -
12/20/2014 16:03 Chemically Wet 29.7F 30F 31F 95 3% - 61% 8 mhos 895 None None - -
12/20/2014 15:57 Chemically Wet 29.8F 30F 31F 95 3% - 58% 8 mhos 891 None None - -
12/20/2014 15:47 Chemically Wet 30.0F 30F 31F 95 3% - 57% 8 mhos 859 None None - -
12/20/2014 15:47 Chemically Wet 30.0F 30F 31F 95 3% - 57% 8 mhos 859 None None - -
12/20/2014 15:37 Chemically Wet 30.4F 30F 31F 95 3% - 47% 7 mhos 799 None None - -
12/20/2014 15:30 Chemically Wet 31.5F 30F 31F 95 3% 0.00 in 0% 7 mhos 810 None None - -
Date/Time
(MST)
Sf
Temp Chem Water Layer Surface Precipitation
Sf Sub Frz Factor Pct Depth IcePct Cond Salin Type Intens Accum Rate
12/20/2014 15:27 Chemically Wet 31.6F 30F 31F 95 3% 0.00 in 0% 7 mhos 738 None None - -
12/20/2014 15:17 Chemically Wet 31.6F 30F 31F 95 3% 0.00 in 0% 8 mhos 887 None None - -
12/20/2014 15:07 Chemically Wet 31.3F 30F 31F 95 3% 0.00 in 0% 8 mhos 846 None None - -
12/20/2014 15:00 Chemically Wet 31.1F 30F 31F 95 3% - 12% 7 mhos 795 None None - -
12/20/2014 14:57 Chemically Wet 31.1F 30F 31F 95 3% - 15% 7 mhos 768 None None - -
12/20/2014 14:47 Wet 32.4F 30F 31F 95 3% 0.00 in 0% 6 mhos 651 None None - -
12/20/2014 14:37 Wet 32.4F 30F 31F 95 2% 0.00 in 0% 5 mhos 516 None None - -
12/20/2014 14:27 Wet 32.9F 30F 31F 95 3% 0.00 in 0% 8 mhos 855 None None - -
12/20/2014 14:17 Wet 33.3F 30F 31F 95 3% 0.00 in 0% 8 mhos 858 None None - -
12/20/2014 14:07 Wet 32.5F 30F 31F 95 3% 0.00 in 0% 8 mhos 877 None None - -
12/20/2014 13:57 Chemically Wet 31.1F 30F 31F 95 3% - 8% 8 mhos 830 None None - -
12/20/2014 12:56 Wet 33.4F 30F 31F 95 2% 0.00 in 0% 6 mhos 631 None None - -
12/20/2014 12:47 Chemically Wet 31.8F 30F 31F 95 2% 0.00 in 0% 5 mhos 578 Yes - - -
12/20/2014 12:37 Chemically Wet 30.9F 30F 31F 95 3% - 21% 8 mhos 830 Yes - - -
12/20/2014 12:27 Chemically Wet 30.2F 30F 31F 95 3% - 60% 7 mhos 737 Yes - - -
Date/Time
(MST)
Sf
Temp Chem Water Layer Surface Precipitation
Sf Sub Frz Factor Pct Depth IcePct Cond Salin Type Intens Accum Rate
12/20/2014 12:17 Chemically Wet 29.5F 30F 31F 95 2% - 77% 5 mhos 572 Yes - - -
12/20/2014 12:06 Chemically Wet 29.3F 30F 31F 95 2% - 75% 6 mhos 647 Yes - - -
12/20/2014 11:56 Chemically Wet 29.1F 30F 31F 95 3% - 75% 6 mhos 718 Yes - - -
12/20/2014 11:46 Chemically Wet 28.9F 30F 31F 95 3% - 75% 7 mhos 769 Yes - - -
12/20/2014 10:52 Chemically Wet 27.0F 30F 31F 95 5% - 76% 10 mhos 1223 Yes - - -
12/20/2014 10:46 Chemically Wet 26.8F 30F 31F 95 4% - 79% 9 mhos 1103 Yes - - -
12/20/2014 10:36 Ice Warning 26.1F 30F 31F 95 3% - 87% 7 mhos 799 Yes - - -
12/20/2014 10:26 Ice Warning 24.8F 30F 31F 95 2% - 94% 4 mhos 472 Yes - - -
12/20/2014 10:26 Ice Warning 24.8F 30F 31F 95 2% - 94% 4 mhos 472 Yes - - -
12/20/2014 10:16 Ice Warning 23.5F 30F 32F 95 1% - 97% 3 mhos 310 Yes - - -
12/20/2014 10:06 Ice Warning 22.5F 30F 32F 95 1% - 97% 2 mhos 266 Yes - - -
12/20/2014 10:01 Ice Warning 22.1F 30F 32F 95 1% - 98% 2 mhos 250 Yes - - -
12/20/2014 10:00 Ice Warning 21.9F 30F 32F 95 1% - 98% 2 mhos 245 Yes - - -
12/20/2014 09:56 Ice Warning 21.7F 30F 32F 95 1% - 98% 2 mhos 237 Yes - - -
12/20/2014 09:46 Ice Warning 21.2F 30F 32F 95 1% - 98% 2 mhos 223 Yes - - -
Date/Time
(MST)
Sf
Temp Chem Water Layer Surface Precipitation
Sf Sub Frz Factor Pct Depth IcePct Cond Salin Type Intens Accum Rate
12/20/2014 09:36 Ice Warning 21.2F 30F 32F 95 1% - 98% 2 mhos 211 Yes - - -
Change End Date:
Copyright © 1998-2005 Surface Systems, Inc.
All Rights Reserved
Send comments about the data to:
SCAN Web ® is a registered trademark of Surface Systems, Inc.
SCAN Web Version 5.6